This is the latest recevied weather packets stored in our database for station/object ON5MM-5. If no packets are shown the sender has not sent any weather packets the latest 10 day(s).
| Time | Temp. | Humidity | Pressure | Rain* | Wind** | Luminosity | Snow |
|---|---|---|---|---|---|---|---|
| 1777646402 | 23.33° C | 22% | 1023.8 hPa | 0 mm | 3.58 m/s, ° | - | - |
| 1777646102 | 23.33° C | 21% | 1023.8 hPa | 0 mm | 3.58 m/s, ° | - | - |
| 1777645802 | 23.33° C | 22% | 1023.8 hPa | 0 mm | 4.02 m/s, ° | - | - |
| 1777645502 | 23.33° C | 21% | 1023.8 hPa | 0 mm | 4.02 m/s, ° | - | - |
| 1777645202 | 22.78° C | 20% | 1023.8 hPa | 0 mm | 4.02 m/s, ° | - | - |
| 1777644902 | 22.78° C | 21% | 1023.9 hPa | 0 mm | 4.47 m/s, ° | - | - |
| 1777644602 | 22.78° C | 20% | 1024 hPa | 0 mm | 4.02 m/s, ° | - | - |
| 1777644303 | 22.78° C | 20% | 1023.9 hPa | 0 mm | 4.02 m/s, ° | - | - |
| 1777643102 | 23.33° C | 21% | 1024.1 hPa | 0 mm | 4.02 m/s, ° | - | - |
| 1777642802 | 22.78° C | 21% | 1024.1 hPa | 0 mm | 3.58 m/s, ° | - | - |
| 1777642502 | 22.78° C | 21% | 1024.2 hPa | 0 mm | 4.47 m/s, ° | - | - |
| 1777642202 | 23.33° C | 21% | 1024.2 hPa | 0 mm | 3.58 m/s, ° | - | - |
| 1777641902 | 23.33° C | 21% | 1024.3 hPa | 0 mm | 2.68 m/s, ° | - | - |
| 1777641002 | 23.33° C | 23% | 1024.4 hPa | 0 mm | 2.68 m/s, ° | - | - |
| 1777638002 | 22.22° C | 22% | 1024.8 hPa | 0 mm | 3.58 m/s, ° | - | - |
| 1777637703 | 22.22° C | 23% | 1024.9 hPa | 0 mm | 3.13 m/s, ° | - | - |
| 1777637102 | 21.67° C | 22% | 1024.9 hPa | 0 mm | 4.92 m/s, ° | - | - |
| 1777636202 | 21.67° C | 23% | 1025 hPa | 0 mm | 4.47 m/s, ° | - | - |
| 1777635602 | 21.67° C | 23% | 1025.2 hPa | 0 mm | 4.92 m/s, ° | - | - |
| 1777635302 | 21.67° C | 25% | 1025.1 hPa | 0 mm | 4.92 m/s, ° | - | - |
| 1777635002 | 21.11° C | 25% | 1025.2 hPa | 0 mm | 4.92 m/s, ° | - | - |
| 1777634702 | 21.11° C | 23% | 1025.2 hPa | 0 mm | 5.36 m/s, ° | - | - |
| 1777634402 | 21.11° C | 23% | 1025.2 hPa | 0 mm | 4.47 m/s, ° | - | - |
| 1777634102 | 21.11° C | 25% | 1025.2 hPa | 0 mm | 4.02 m/s, ° | - | - |
| 1777633803 | 21.11° C | 24% | 1025.2 hPa | 0 mm | 5.81 m/s, ° | - | - |
* Rain latest hour (hover to see other rain measurements)
** Current wind speed in m/s (hover to see current wind gust speed)